www.pogodaiklimat.ru

Погода и климат >> Архив погоды >> Россия >> Волгоградская область >> Палласовка


ПОГОДА в Палласовке

  • Прогноз погоды в Палласовке
  • Монитор погоды в Палласовке

АРХИВ ПОГОДЫ в Палласовке

Время (UTC), дата Ветер
(напр.,м/с)
 
Видим.   Явления Облачность Т
(С)
Тd
(С)
f
(%)
Тe
(С)
Тes
(С)
Комфортность P
(гПа)
Po
(гПа)
Тmin
(С)
Tmax
(С)
R
(мм)
R24
(мм)
S
(см)
09 18.05 СЗ 3 10 км ясно +20.9 +1.4 27 +21 +35 комфорт 1016.0 1011.8
12 18.05 З 3 10 км ясно +22.7 +0.9 24 +22 +31 комфорт 1014.1 1010.0
15 18.05 СЗ 3 10 км ясно +21.8 +1.6 26 +21 +23 комфорт 1012.8 1008.6 +22.7
18 18.05 З 1 10 км ясно +13.3 +3.9 53 +14 +14 1013.0 1008.7
21 18.05 ЮЗ 2 10 км ясно +11.1 +5.4 68 +10 +10 1012.5 1008.2
00 19.05 ЮЗ 2 10 км ясно +11.0 +3.5 60 +10 +10 1011.8 1007.5
03 19.05 СЗ 2 10 км ясно +12.0 +4.8 61 +11 +13 1011.8 1007.5 +10.0
06 19.05 С 2 10 км ясно +20.2 +3.5 33 +21 +32 комфорт 1012.3 1008.1
09 19.05 З 4 10 км 3/0
[Ci fib]
+22.7 0.0 22 +22 +33 комфорт 1011.7 1007.6
12 19.05 З 4 10 км ясно +23.2 -1.8 19 +22 +29 комфорт 1011.2 1007.1
15 19.05 З 3
{11}
10 км 5/0
[Ci fib]
+21.7 -0.4 23 +21 +22 комфорт 1010.9 1006.8 +23.4
18 19.05 С 4 10 км 3/0
[Ci fib]
+16.8 +0.2 32 +16 +16 1012.9 1008.7
21 19.05 С 2 н/о н/о +11.0 +0.7 49 +10 +10 1015.3 1011.0
00 20.05 С 2 н/о н/о +7.0 -0.7 58 +5 +5 1016.6 1012.2
03 20.05 С 2 10 км ясно +8.2 -0.8 53 +7 +9 1018.6 1014.2 +5.0
06 20.05 СЗ 1 10 км ясно +13.7 -1.3 35 +14 +28 опасность
простуды
1019.6 1015.3
09 20.05 СЗ 5-10
{10}
10 км ясно +15.7 -1.9 30 +15 +24 1019.2 1015.0
12 20.05 СЗ 4
{11}
10 км 3/0
[Ci fib]
+17.3 -2.8 25 +17 +24 1018.9 1014.6
15 20.05 С 3
{11}
10 км ясно +16.3 -3.2 26 +16 +17 1018.9 1014.6 +17.5
18 20.05 С 1 10 км ясно +11.0 -2.3 39 +11 +11 1020.1 1015.7
21 20.05 штиль 0 10 км ясно +6.1 -0.1 64 +6 +6 1020.9 1016.5
00 21.05 З 1 10 км ясно +6.2 -0.5 62 +6 +6 1021.4 1017.0
03 21.05 З 2 10 км ясно +9.8 +0.7 53 +9 +11 1022.5 1018.1 +4.7
06 21.05 З 3 10 км 3/0
[Ci fib]
+17.4 -3.1 24 +17 +26 1022.8 1018.6
09 21.05 З 2 10 км 6/0
[Ci fib]
+19.3 -2.4 23 +20 +35 опасность
простуды
1022.7 1018.5
12 21.05 З 2 10 км 4/0
[Ci fib]
+20.8 -2.7 20 +21 +31 комфорт 1021.8 1017.6
15 21.05 З 2 10 км 5/0
[Ci fib]
+20.5 -1.9 22 +21 +22 комфорт 1020.9 1016.7 +21.4
18 21.05 Ю 2 10 км ясно +14.9 +0.4 37 +15 +15 1020.8 1016.5
21 21.05 Ю 2 10 км ясно +11.7 +0.2 45 +11 +11 1020.7 1016.4
00 22.05 Ю 2 10 км ясно +9.4 +0.8 55 +8 +8 1020.5 1016.1
03 22.05 Ю 2 10 км 5/0
[Ci fib]
+13.5 -0.1 39 +13 +15 1020.4 1016.1 +8.8
06 22.05 ЮЗ 4 10 км 5/0
[Ci fib]
+20.9 +2.3 29 +21 +28 комфорт 1019.7 1015.5
09 22.05 ЮЗ 3 10 км 3/0
[Ci fib]
+24.0 +0.7 22 +23 +36 комфорт 1018.4 1014.2
12 22.05 Ю 3 10 км 3/0
[Ci fib]
+24.5 +1.0 21 +23 +31 комфорт 1016.7 1012.6
15 22.05 Ю 3 10 км ясно +22.1 +0.5 24 +22 +23 комфорт 1015.8 1011.6 +24.8
18 22.05 ЮВ 1 10 км 5/0
[Ci fib]
+15.2 +3.6 46 +16 +16 1015.6 1011.3
21 22.05 Ю 2 10 км 5/0
[Ci fib]
+13.5 +2.7 48 +13 +13 1015.0 1010.7
00 23.05 Ю 2 10 км ясно +11.3 +3.8 60 +10 +10 1013.8 1009.5
03 23.05 ЮВ 3 10 км 6/0
[Ci fib]
+11.9 +4.9 62 +10 +12 1012.7 1008.4 +9.8
06 23.05 Ю 4 10 км 6/0
[Ci fib]
+20.0 +8.2 47 +21 +28 комфорт 1011.4 1007.2
09 23.05 Ю 3 10 км 8/8 600 м
[Sc]
+21.8 +9.3 45 +23 +26 комфорт 1010.0 1005.8
12 23.05 Ю 4 10 км 8/8 600 м
[Sc]
+21.9 +5.2 34 +22 +24 комфорт 1008.5 1004.3
15 23.05 Ю 2 10 км 8/0
[Ci fib]
+21.0 +9.9 49 +23 +25 комфорт 1006.5 1002.4 +23.0
18 23.05 ЮЗ 2 10 км 10/0
[Ci fib]
+18.8 +11.5 63 +20 +20 1006.6 1002.4
21 23.05 Ю 2 10 км 10/10 600 м
[Sc]
+15.5 +10.5 72 +15 +15 1006.1 1001.9
00 24.05 Ю 1 10 км 8/0
[Ci fib]
+13.1 +10.2 83 +13 +13 1005.3 1001.0
03 24.05 ЮЗ 2 10 км 3/0
[Ci fib]
+13.7 +11.2 85 +13 +15 1005.5 1001.3 +11.9
06 24.05 Ю 1 10 км ясно +21.2 +11.4 54 +23 +37 комфорт 1005.5 1001.4
09 24.05 ЮЗ 2 10 км 5/0
[Ci fib]
+23.6 +10.8 44 +25 +40 комфорт 1005.8 1001.7
12 24.05 С 2 10 км 5/0
[Ci fib]
+26.2 +8.8 33 +26 +36 жарко 1006.0 1001.9
15 24.05 С 5
{11}
10 км 8/8 600 м
[Cb calv]
+21.7 +11.3 52 +24 +24 комфорт 1008.6 1004.5 +26.5
18 24.05 СВ 3
{10}
10 км 10/10 600 м
[Cb calv]
+16.2 +9.4 64 +16 +16 1011.9 1007.7
21 24.05 СВ 3 10 км 10/10 600 м
[Cb calv]
+11.9 +3.9 58 +11 +11 1014.1 1009.8
00 25.05 СВ 4 10 км 8/8 600 м
[Cb calv]
+9.3 +2.6 63 +7 +7 1016.1 1011.7
03 25.05 СВ 5
{10}
10 км ясно +9.3 +2.2 61 +6 +7 1017.4 1013.1 +8.0
06 25.05 СВ 6-11
{13}
10 км ясно +13.9 -1.3 35 +12 +17 1017.5 1013.2

 

Местоположение метеостанции Палласовка (Волгоградская область, Россия): широта 50.05 долгота 46.88 высота над уровнем моря 37 м.

В архиве по умолчанию представлена погода в Палласовке за последнюю неделю. Архивные данные за месяц целиком и за предыдущие месяцы, начиная с января 2011 года, Вы можете получить, выбрав интересующий диапазон дат из раскрывающегося списка и нажав кнопку "Ввод!".


*Определитесь, кто Вы:
робот инопланетянин человек

Внимание! Время в таблицах - всемирное. Для получения местного времени необходимо прибавить поправку, которая равна 3 ч.

Смотрите также архив погоды в соседних городах и на ближайших метеорологических станциях:

Погода в Жанаказане (Западно-Казахстанская область, Казахстан) (62 км)
Погода в Жанибеке (Западно-Казахстанская область, Казахстан) (73 км)
Погода в Новоузенске (Саратовская область, Россия) (98 км)
Погода в Красном Куте (Саратовская область, Россия) (100 км)
Погода в Эльтоне (Волгоградская область, Россия) (102 км)
Погода в Камышине (Волгоградская область, Россия) (108 км)
Погода в Александровом Гае (Саратовская область, Россия) (120 км)
Погода в Казталовке (Западно-Казахстанская область, Казахстан) (133 км)
Погода в Урде (Западно-Казахстанская область, Казахстан) (148 км)
Погода в Сплавнухе (Саратовская область, Россия) (155 км)

Пояснения к столбцам:

Ветер - указаны скорость ветра в м/с - средняя за 10 мин, порывы в срок и между сроками (в фигурных скобках) и направление, откуда дует ветер: С - северный, СВ - северо-восточный, В - восточный, ЮВ - юго-восточный, Ю - южный, ЮЗ - юго-западный, З - западный, СЗ - северо-западный.
Видимость - горизонтальная дальность видимости в метрах или километрах. При видимости от 1 до 10 км при отсутствии осадков обычно наблюдается дымка, при ухудшении видимости до 1 км и менее - туман. В сухую погоду видимость может ухудшаться дымом, пылью или мглою.
Явления - указаны атмосферные явления, наблюдавшиеся в срок или в последний час перед сроком; фигурными скобками обозначены явления, наблюдавшиеся между сроками (за 1-3 часа до срока); квадратными скобками обозначены град или гололедные отложения с указанием их диаметра в мм.
Облачность - указаны через наклонную черту общая и нижняя облачность в баллах и высота нижней границы облаков в метрах; квадратными скобками обозначены формы облаков: Ci - перистые, Cs - перисто-слоистые, Cc - перисто-кучевые, Ac - высококучевые, As - высокослоистые, Sc - слоисто-кучевые, Ns - слоисто-дождевые, Cu - кучевые, Cb - кучево-дождевые. Подробнее классификацию облаков см. в Атласе облаков (PDF).
T - Температура воздуха - температура, измеренная на высоте 2 м над землей.
Td - Температура точки росы - температура, при понижении до которой содержащийся в воздухе водяной пар достигнет насыщения.
f - Относительная влажность воздуха - влажноcть воздуха, измеренная на высоте 2 м над землей.
Te - Эффективная температура - температура, которую ощущает одетый по сезону человек в тени. Характеристика душности погоды. При расчете учитывается влияние влажности воздуха и скорости ветра на теплоощущения человека.
Tes - Эффективная температура на солнце - температура, которую ощущает человек, с поправкой на солнечный нагрев. Характеристика знойности погоды. Зависит от высоты солнца над горизонтом, облачности и скорости ветра. Ночью, в пасмурную погоду, а также при ветре 12 м/с и более поправка равна нулю.
P - Атмосферное давление - приведенное к уровню моря атмосферное давление.
Po - Атмосферное давление - измеренное на уровне метеостанции атмосферное давление.
Tmin - Минимальная температура - минимум температуры воздуха на высоте 2 м над землей.
Tmax - Максимальная температура - максимум температуры воздуха на высоте 2 м над землей.
R - Количество осадков - Количество выпавших осадков за период времени, мм. При наведении курсора мыши на число - период времени, за который выпало указанное количество осадков.
R24 - Количество осадков - Количество выпавших осадков за 24 часа, мм.
S - Снежный покров - Высота снежного покрова, см. При наведении курсора мыши на число - состояние снежного покрова и степень покрытия местности в баллах.